Time,TemperatureF,DewpointF,PressureIn,WindDirection,WindDirectionDegrees,WindSpeedMPH,WindSpeedGustMPH,Humidity,HourlyPrecipIn,Conditions,Clouds,dailyrainin,SoftwareType,DateUTC
2013-01-16 00:02:00,36.0,14.0,-100.00,North,-999,-999.0,-999.0,39,-99.99,,,-99.99,,2013-01-16 08:02:00,
2013-01-16 00:12:00,36.0,14.0,-100.00,North,-999,-999.0,-999.0,39,-99.99,,,-99.99,,2013-01-16 08:12:00,
2013-01-16 00:22:00,36.0,14.0,-100.00,North,-999,-999.0,-999.0,39,-99.99,,,-99.99,,2013-01-16 08:22:00,
2013-01-16 00:52:00,36.0,13.0,-100.00,North,-999,-999.0,-999.0,38,-99.99,,,-99.99,,2013-01-16 08:52:00,
2013-01-16 01:02:00,36.0,13.0,-100.00,North,-999,-999.0,-999.0,38,-99.99,,,-99.99,,2013-01-16 09:02:00,
2013-01-16 02:12:00,-999.0,-99.9,-100.00,NNE,28,7.0,-999.0,-999,-99.99,,,-99.99,,2013-01-16 10:12:00,
2013-01-16 02:22:00,40.0,16.0,-100.00,North,-999,-999.0,-999.0,37,-99.99,,,-99.99,,2013-01-16 10:22:00,
2013-01-16 02:33:00,-999.0,-99.9,-100.00,NNE,28,11.0,-999.0,-999,-99.99,,,-99.99,,2013-01-16 10:33:00,
2013-01-16 02:43:00,-999.0,-99.9,-100.00,SW,219,10.0,-999.0,-999,-99.99,,,-99.99,,2013-01-16 10:43:00,
2013-01-16 02:52:00,33.0,13.0,-100.00,North,-999,-999.0,-999.0,43,-99.99,,,-99.99,,2013-01-16 10:52:00,
2013-01-16 03:02:00,33.0,13.0,-100.00,North,-999,-999.0,-999.0,43,-99.99,,,-99.99,,2013-01-16 11:02:00,
2013-01-16 03:11:00,33.0,13.0,-100.00,North,-999,-999.0,-999.0,43,-99.99,,,-99.99,,2013-01-16 11:11:00,
2013-01-16 03:21:00,-999.0,-99.9,-100.00,South,174,2.0,-999.0,-999,-99.99,,,-99.99,,2013-01-16 11:21:00,
2013-01-16 03:43:00,-999.0,-99.9,-100.00,South,174,2.0,-999.0,-999,-99.99,,,-99.99,,2013-01-16 11:43:00,
2013-01-16 03:53:00,-999.0,-99.9,-100.00,South,174,2.0,-999.0,-999,-99.99,,,-99.99,,2013-01-16 11:53:00,
2013-01-16 04:03:00,-999.0,-99.9,-100.00,South,174,2.0,-999.0,-999,-99.99,,,-99.99,,2013-01-16 12:03:00,
2013-01-16 04:13:00,-999.0,-99.9,-100.00,South,174,2.0,-999.0,-999,-99.99,,,-99.99,,2013-01-16 12:13:00,
2013-01-16 06:43:00,-999.0,-99.9,-100.00,NNE,22,2.0,-999.0,-999,-99.99,,,-99.99,,2013-01-16 14:43:00,
2013-01-16 06:52:00,39.0,18.0,-100.00,North,-999,-999.0,-999.0,41,-99.99,,,-99.99,,2013-01-16 14:52:00,
2013-01-16 07:22:00,34.0,15.0,-100.00,North,-999,-999.0,-999.0,45,-99.99,,,-99.99,,2013-01-16 15:22:00,
2013-01-16 07:42:00,34.0,15.0,-100.00,North,-999,-999.0,-999.0,45,-99.99,,,-99.99,,2013-01-16 15:42:00,
2013-01-16 08:12:00,38.0,17.0,-100.00,North,-999,-999.0,-999.0,42,-99.99,,,-99.99,,2013-01-16 16:12:00,
2013-01-16 08:22:00,38.0,17.0,-100.00,North,-999,-999.0,-999.0,42,-99.99,,,-99.99,,2013-01-16 16:22:00,
2013-01-16 08:32:00,38.0,17.0,-100.00,North,-999,-999.0,-999.0,42,-99.99,,,-99.99,,2013-01-16 16:32:00,
2013-01-16 09:03:00,-999.0,-99.9,-100.00,East,90,3.0,-999.0,-999,-99.99,,,-99.99,,2013-01-16 17:03:00,
2013-01-16 09:12:00,-999.0,-99.9,-100.00,NE,50,8.0,-999.0,-999,-99.99,,,-99.99,,2013-01-16 17:12:00,
2013-01-16 09:33:00,-999.0,-99.9,-100.00,North,5,11.0,-999.0,-999,-99.99,,,-99.99,,2013-01-16 17:33:00,
2013-01-16 09:53:00,46.0,-99.9,-100.00,North,-999,-999.0,-999.0,-999,-99.99,,,-99.99,,2013-01-16 17:53:00,
2013-01-16 10:03:00,-999.0,-99.9,-100.00,NE,56,9.0,-999.0,-999,-99.99,,,-99.99,,2013-01-16 18:03:00,
2013-01-16 10:13:00,-999.0,-99.9,-100.00,NE,56,9.0,-999.0,-999,-99.99,,,-99.99,,2013-01-16 18:13:00,
2013-01-16 10:23:00,-999.0,-99.9,-100.00,North,5,8.0,-999.0,-999,-99.99,,,-99.99,,2013-01-16 18:23:00,
2013-01-16 10:33:00,-999.0,-99.9,-100.00,NNE,33,10.0,-999.0,-999,-99.99,,,-99.99,,2013-01-16 18:33:00,
2013-01-16 10:43:00,-999.0,-99.9,-100.00,NNE,33,15.0,-999.0,-999,-99.99,,,-99.99,,2013-01-16 18:43:00,
2013-01-16 11:03:00,-999.0,-99.9,-100.00,NNE,28,15.0,-999.0,-999,-99.99,,,-99.99,,2013-01-16 19:03:00,
2013-01-16 11:13:00,-999.0,-99.9,-100.00,ENE,78,14.0,-999.0,-999,-99.99,,,-99.99,,2013-01-16 19:13:00,
2013-01-16 11:23:00,-999.0,-99.9,-100.00,ENE,78,14.0,-999.0,-999,-99.99,,,-99.99,,2013-01-16 19:23:00,
2013-01-16 11:33:00,-999.0,-99.9,-100.00,ENE,61,11.0,-999.0,-999,-99.99,,,-99.99,,2013-01-16 19:33:00,
2013-01-16 11:43:00,-999.0,-99.9,-100.00,NNE,22,12.0,-999.0,-999,-99.99,,,-99.99,,2013-01-16 19:43:00,
2013-01-16 11:53:00,-999.0,-99.9,-100.00,NNE,22,12.0,-999.0,-999,-99.99,,,-99.99,,2013-01-16 19:53:00,
2013-01-16 12:03:00,-999.0,-99.9,-100.00,North,0,10.0,-999.0,-999,-99.99,,,-99.99,,2013-01-16 20:03:00,
2013-01-16 12:12:00,-999.0,-99.9,-100.00,NE,45,9.0,-999.0,-999,-99.99,,,-99.99,,2013-01-16 20:12:00,
2013-01-16 12:52:00,54.0,21.0,-100.00,North,-999,-999.0,-999.0,27,-99.99,,,-99.99,,2013-01-16 20:52:00,
2013-01-16 13:02:00,54.0,21.0,-100.00,North,-999,-999.0,-999.0,27,-99.99,,,-99.99,,2013-01-16 21:02:00,
2013-01-16 13:23:00,-999.0,-99.9,-100.00,NNE,22,7.0,-999.0,-999,-99.99,,,-99.99,,2013-01-16 21:23:00,
2013-01-16 13:33:00,-999.0,-99.9,-100.00,NNE,22,7.0,-999.0,-999,-99.99,,,-99.99,,2013-01-16 21:33:00,
2013-01-16 13:43:00,-999.0,-99.9,-100.00,NNE,16,7.0,-999.0,-999,-99.99,,,-99.99,,2013-01-16 21:43:00,
2013-01-16 14:03:00,-999.0,-99.9,-100.00,North,5,10.0,-999.0,-999,-99.99,,,-99.99,,2013-01-16 22:03:00,
2013-01-16 14:12:00,-999.0,-99.9,-100.00,NNE,16,9.0,-999.0,-999,-99.99,,,-99.99,,2013-01-16 22:12:00,
2013-01-16 14:23:00,-999.0,-99.9,-100.00,NNE,16,9.0,-999.0,-999,-99.99,,,-99.99,,2013-01-16 22:23:00,
2013-01-16 14:33:00,-999.0,-99.9,-100.00,NE,50,9.0,-999.0,-999,-99.99,,,-99.99,,2013-01-16 22:33:00,
2013-01-16 14:43:00,-999.0,-99.9,-100.00,NE,50,9.0,-999.0,-999,-99.99,,,-99.99,,2013-01-16 22:43:00,
2013-01-16 14:53:00,-999.0,-99.9,-100.00,NE,56,9.0,-999.0,-999,-99.99,,,-99.99,,2013-01-16 22:53:00,
2013-01-16 15:03:00,-999.0,-99.9,-100.00,NE,56,9.0,-999.0,-999,-99.99,,,-99.99,,2013-01-16 23:03:00,
2013-01-16 15:13:00,-999.0,-99.9,-100.00,North,0,8.0,-999.0,-999,-99.99,,,-99.99,,2013-01-16 23:13:00,
2013-01-16 15:23:00,57.0,-99.9,-100.00,North,-999,-999.0,-999.0,-999,-99.99,,,-99.99,,2013-01-16 23:23:00,
2013-01-16 15:33:00,-999.0,-99.9,-100.00,NNE,22,7.0,-999.0,-999,-99.99,,,-99.99,,2013-01-16 23:33:00,
2013-01-16 15:43:00,-999.0,-99.9,-100.00,NNE,22,7.0,-999.0,-999,-99.99,,,-99.99,,2013-01-16 23:43:00,
2013-01-16 15:53:00,-999.0,-99.9,-100.00,NE,39,7.0,-999.0,-999,-99.99,,,-99.99,,2013-01-16 23:53:00,
2013-01-16 16:03:00,-999.0,-99.9,-100.00,NE,39,7.0,-999.0,-999,-99.99,,,-99.99,,2013-01-17 00:03:00,
2013-01-16 16:12:00,-999.0,-99.9,-100.00,NE,50,7.0,-999.0,-999,-99.99,,,-99.99,,2013-01-17 00:12:00,
2013-01-16 16:23:00,-999.0,-99.9,-100.00,NE,50,7.0,-999.0,-999,-99.99,,,-99.99,,2013-01-17 00:23:00,
2013-01-16 16:33:00,-999.0,-99.9,-100.00,NNE,28,9.0,-999.0,-999,-99.99,,,-99.99,,2013-01-17 00:33:00,
2013-01-16 16:43:00,-999.0,-99.9,-100.00,NNE,28,9.0,-999.0,-999,-99.99,,,-99.99,,2013-01-17 00:43:00,
2013-01-16 16:53:00,-999.0,-99.9,-100.00,NNE,28,8.0,-999.0,-999,-99.99,,,-99.99,,2013-01-17 00:53:00,
2013-01-16 17:03:00,-999.0,-99.9,-100.00,North,11,9.0,-999.0,-999,-99.99,,,-99.99,,2013-01-17 01:03:00,
2013-01-16 17:12:00,-999.0,-99.9,-100.00,North,11,9.0,-999.0,-999,-99.99,,,-99.99,,2013-01-17 01:12:00,
2013-01-16 17:22:00,-999.0,-99.9,-100.00,NNE,28,11.0,-999.0,-999,-99.99,,,-99.99,,2013-01-17 01:22:00,
2013-01-16 17:33:00,-999.0,-99.9,-100.00,NNE,28,11.0,-999.0,-999,-99.99,,,-99.99,,2013-01-17 01:33:00,
2013-01-16 17:43:00,-999.0,-99.9,-100.00,NE,50,11.0,-999.0,-999,-99.99,,,-99.99,,2013-01-17 01:43:00,
2013-01-16 18:22:00,-999.0,-99.9,-100.00,NNE,28,4.0,-999.0,-999,-99.99,,,-99.99,,2013-01-17 02:22:00,
2013-01-16 18:33:00,-999.0,-99.9,-100.00,NNE,28,4.0,-999.0,-999,-99.99,,,-99.99,,2013-01-17 02:33:00,
2013-01-16 18:43:00,-999.0,-99.9,-100.00,NNE,28,4.0,-999.0,-999,-99.99,,,-99.99,,2013-01-17 02:43:00,
2013-01-16 18:53:00,-999.0,-99.9,-100.00,NNE,28,4.0,-999.0,-999,-99.99,,,-99.99,,2013-01-17 02:53:00,
2013-01-16 19:03:00,-999.0,-99.9,-100.00,North,5,5.0,-999.0,-999,-99.99,,,-99.99,,2013-01-17 03:03:00,
2013-01-16 19:12:00,-999.0,-99.9,-100.00,North,5,5.0,-999.0,-999,-99.99,,,-99.99,,2013-01-17 03:12:00,
2013-01-16 19:22:00,-999.0,-99.9,-100.00,NE,50,6.0,-999.0,-999,-99.99,,,-99.99,,2013-01-17 03:22:00,
2013-01-16 19:33:00,-999.0,-99.9,-100.00,NE,50,10.0,-999.0,-999,-99.99,,,-99.99,,2013-01-17 03:33:00,
2013-01-16 19:53:00,-999.0,-99.9,-100.00,NE,50,9.0,-999.0,-999,-99.99,,,-99.99,,2013-01-17 03:53:00,
2013-01-16 20:03:00,-999.0,-99.9,-100.00,NE,50,9.0,-999.0,-999,-99.99,,,-99.99,,2013-01-17 04:03:00,
2013-01-16 20:12:00,-999.0,-99.9,-100.00,NE,50,10.0,-999.0,28,-99.99,,,-99.99,,2013-01-17 04:12:00,
2013-01-16 20:23:00,-999.0,-99.9,-100.00,NE,39,11.0,-999.0,-999,-99.99,,,-99.99,,2013-01-17 04:23:00,
2013-01-16 20:33:00,-999.0,-99.9,-100.00,NE,39,10.0,-999.0,-999,-99.99,,,-99.99,,2013-01-17 04:33:00,
2013-01-16 20:43:00,-999.0,-99.9,-100.00,NE,39,10.0,-999.0,-999,-99.99,,,-99.99,,2013-01-17 04:43:00,
2013-01-16 20:53:00,-999.0,-99.9,-100.00,NNE,22,10.0,-999.0,-999,-99.99,,,-99.99,,2013-01-17 04:53:00,
2013-01-16 21:05:00,-999.0,-99.9,-100.00,NE,45,11.0,-999.0,-999,-99.99,,,-99.99,,2013-01-17 05:05:00,
2013-01-16 21:12:00,-999.0,-99.9,-100.00,NE,56,12.0,-999.0,-999,-99.99,,,-99.99,,2013-01-17 05:12:00,
2013-01-16 21:22:00,-999.0,-99.9,-100.00,NE,56,12.0,-999.0,-999,-99.99,,,-99.99,,2013-01-17 05:22:00,
2013-01-16 21:33:00,-999.0,-99.9,-100.00,NE,39,14.0,-999.0,-999,-99.99,,,-99.99,,2013-01-17 05:33:00,
2013-01-16 21:43:00,-999.0,-99.9,-100.00,NE,39,14.0,-999.0,-999,-99.99,,,-99.99,,2013-01-17 05:43:00,
2013-01-16 22:03:00,-999.0,-99.9,-100.00,NE,45,12.0,-999.0,-999,-99.99,,,-99.99,,2013-01-17 06:03:00,
2013-01-16 22:12:00,-999.0,-99.9,-100.00,NE,45,9.0,-999.0,-999,-99.99,,,-99.99,,2013-01-17 06:12:00,
2013-01-16 22:33:00,-999.0,-99.9,-100.00,North,11,13.0,-999.0,-999,-99.99,,,-99.99,,2013-01-17 06:33:00,
2013-01-16 22:42:00,-999.0,-99.9,-100.00,North,11,13.0,-999.0,-999,-99.99,,,-99.99,,2013-01-17 06:42:00,
2013-01-16 22:53:00,-999.0,-99.9,-100.00,North,11,13.0,-999.0,-999,-99.99,,,-99.99,,2013-01-17 06:53:00,
2013-01-16 23:02:00,-999.0,-99.9,-100.00,North,11,13.0,-999.0,-999,-99.99,,,-99.99,,2013-01-17 07:02:00,
2013-01-16 23:12:00,-999.0,-99.9,-100.00,NNE,33,12.0,-999.0,-999,-99.99,,,-99.99,,2013-01-17 07:12:00,
2013-01-16 23:33:00,-999.0,-99.9,-100.00,NE,45,14.0,-999.0,-999,-99.99,,,-99.99,,2013-01-17 07:33:00,
2013-01-16 23:43:00,-999.0,-99.9,-100.00,NNE,22,13.0,-999.0,-999,-99.99,,,-99.99,,2013-01-17 07:43:00,
2013-01-16 23:53:00,-999.0,-99.9,-100.00,NNE,22,13.0,-999.0,-999,-99.99,,,-99.99,,2013-01-17 07:53:00,